FW3216 Weather Reports


time (UTC)temp
F
wind
direction
speed
knots
gust
knots
rain 1hr
in
rain 24hr
in
rain mn
in
humidity
%
barometer
mb
20260504081516 57 225 6.1 8.7 0.00 0.00 0.00 45 997.0
20260504080515 57 225 6.1 9.6 0.00 0.00 0.00 45 997.3
20260504050515 54 203 2.6 5.2 0.00 0.00 0.00 50 1000.7
20260504045515 54 203 2.6 5.2 0.00 0.00 0.00 50 1000.9
20260504044515 55 225 2.6 5.2 0.00 0.00 0.00 50 1001.0
20260504043516 55 225 2.6 5.2 0.00 0.00 0.00 50 1001.2
20260504042516 54 225 2.6 3.5 0.00 0.00 0.00 49 1001.4
20260504041517 54 225 1.7 3.5 0.00 0.00 0.00 50 1001.5
20260504040515 54 248 1.7 2.6 0.00 0.00 0.00 50 1001.8
20260504035516 54 248 2.6 3.5 0.00 0.00 0.00 52 1002.0
20260504034515 54 248 1.7 3.5 0.00 0.00 0.00 52 1002.1
20260504033515 54 248 1.7 2.6 0.00 0.00 0.00 51 1002.3
20260504032516 54 248 0.9 1.7 0.00 0.00 0.00 53 1002.5
20260504031515 55 0.0 1.7 0.00 0.00 0.00 47 1002.7
20260504030515 55 248 0.9 0.9 0.00 0.00 0.00 45 1002.8
20260504025515 56 248 0.9 1.7 0.00 0.00 0.00 48 1002.9
20260504024515 57 0.0 0.0 0.00 0.00 0.00 42 1003.0
20260504023515 57 248 0.9 1.7 0.00 0.00 0.00 40 1003.0
20260504022515 58 248 0.9 1.7 0.00 0.00 0.00 38 1003.0
20260504021535 59 248 0.9 1.7 0.00 0.00 0.00 38 1003.2
20260504020535 60 248 0.9 1.7 0.00 0.00 0.00 35 1003.0
20260504015535 61 248 0.9 1.7 0.00 0.00 0.00 34 1002.9
20260504014515 62 248 1.7 2.6 0.00 0.00 0.00 33 1003.0
20260504013515 63 248 0.9 2.6 0.00 0.00 0.00 32 1003.0
20260504012515 64 248 1.7 2.6 0.00 0.00 0.00 33 1003.2
20260504011516 65 248 0.9 3.5 0.00 0.00 0.00 31 1003.2
20260504010538 66 248 2.6 6.1 0.00 0.00 0.00 29 1003.3
20260504005517 67 248 3.5 7.0 0.00 0.00 0.00 29 1003.2
20260504004517 67 270 4.3 9.6 0.00 0.00 0.00 29 1003.2
20260504003517 67 270 2.6 7.8 0.00 0.00 0.00 29 1003.3
20260504002517 67 248 4.3 11.3 0.00 0.00 0.00 28 1003.4
20260504001558 68 225 4.3 9.6 0.00 0.00 0.00 28 1003.4
20260504000638 68 270 3.5 9.6 0.00 0.00 0.00 30 1003.4
20260503235537 68 225 3.5 8.7 0.00 0.00 0.00 28 1003.4
20260503234517 68 270 4.3 10.4 0.00 0.00 0.00 28 1003.5
20260503233517 69 293 4.3 10.4 0.00 0.00 0.00 27 1003.5
20260503232517 69 293 3.5 7.8 0.00 0.00 0.00 26 1003.6
20260503231517 69 270 3.5 7.8 0.00 0.00 0.00 28 1003.7
20260503230517 69 248 5.2 13.0 0.00 0.00 0.00 25 1003.8
20260503225517 70 270 5.2 12.2 0.00 0.00 0.00 26 1004.0
20260503224517 70 248 2.6 8.7 0.00 0.00 0.00 27 1004.0
20260503223517 70 293 3.5 7.8 0.00 0.00 0.00 26 1004.0
20260503222517 70 293 2.6 5.2 0.00 0.00 0.00 28 1004.2
20260503221517 71 270 3.5 8.7 0.00 0.00 0.00 26 1004.2
20260503220517 70 315 3.5 8.7 0.00 0.00 0.00 26 1004.2
20260503215517 70 315 1.7 7.0 0.00 0.00 0.00 26 1004.4
20260503214537 71 293 2.6 8.7 0.00 0.00 0.00 27 1004.5
20260503213517 70 293 4.3 8.7 0.00 0.00 0.00 26 1004.6
20260503212538 70 23 7.0 13.9 0.00 0.00 0.00 26 1004.8
20260503211537 70 270 5.2 12.2 0.00 0.00 0.00 26 1004.8
20260503210517 70 270 3.5 11.3 0.00 0.00 0.00 28 1004.9
20260503205517 70 293 6.1 11.3 0.00 0.00 0.00 27 1005.0
20260503204517 70 293 5.2 10.4 0.00 0.00 0.00 26 1005.1
20260503203517 70 293 4.3 14.8 0.00 0.00 0.00 25 1005.1
20260503202517 70 293 5.2 13.9 0.00 0.00 0.00 28 1005.3
20260503201517 70 270 6.1 13.0 0.00 0.00 0.00 26 1005.4
20260503200517 70 293 5.2 13.9 0.00 0.00 0.00 27 1005.5
20260503195517 70 0 3.5 12.2 0.00 0.00 0.00 29 1005.5
20260503194518 69 23 5.2 17.4 0.00 0.00 0.00 31 1005.6
20260503193517 70 315 7.0 13.0 0.00 0.00 0.00 29 1005.6
20260503192518 70 293 5.2 12.2 0.00 0.00 0.00 30 1005.5
20260503191517 69 0 5.2 12.2 0.00 0.00 0.00 30 1005.8
20260503190538 69 0 5.2 14.8 0.00 0.00 0.00 29 1005.8
20260503185517 69 0 6.1 13.9 0.00 0.00 0.00 29 1006.0
20260503184557 70 23 5.2 15.6 0.00 0.00 0.00 29 1005.8
20260503183517 69 23 5.2 12.2 0.00 0.00 0.00 32 1005.9
20260503182516 68 23 7.8 14.8 0.00 0.00 0.00 30 1005.7
20260503181516 69 23 7.0 14.8 0.00 0.00 0.00 33 1006.0
20260503180517 69 293 6.1 13.0 0.00 0.00 0.00 31 1006.1
20260503175518 68 23 5.2 9.6 0.00 0.00 0.00 39 1006.0
20260503174516 69 315 3.5 10.4 0.00 0.00 0.00 41 1006.2
20260503173517 69 0 5.2 13.0 0.00 0.00 0.00 39 1006.1
20260503172537 68 23 5.2 10.4 0.00 0.00 0.00 38 1006.5
20260503171516 67 338 6.1 13.0 0.00 0.00 0.00 39 1006.5
20260503170517 68 23 5.2 13.0 0.00 0.00 0.00 38 1006.4
20260503150517 65 23 5.2 11.3 0.00 0.00 0.00 47 1006.1
20260503130516 57 293 3.5 7.8 0.00 0.00 0.00 52 1005.4
20260503110516 53 203 0.9 2.6 0.00 0.00 0.00 53 1004.1